Location: Zagreb
(45.8000°N, 16.0000°E)
Time: 20:00:28
(UTC+02:00)

A-11 Canister half - Pass Details

Date: 12 August 2022
Orbit: 1524 x 1684 km, 47.3° (Epoch: 05 October)

Event Time Altitude Azimuth Distance (km) Brightness Sun altitude
Rises 12:27:34 0° 293° (WNW) 4,934 11.5 58.3°
Reaches altitude 10° 12:30:53 10° 288° (WNW) 3,933 11.1 58.5°
Maximum altitude 12:40:21 49° 218° (SW) 2,041 11.0 58.8°
Drops below altitude 10° 12:49:33 10° 148° (SSE) 3,814 11.7 59.0°
Sets 12:52:44 0° 143° (SE) 4,775 12.0 59.0°
